Flood From: 21-02-2018 18:00 Until: 22-02-2018 16:00 warning for: Flood Level: Yellow info button

Although rather usual in this region, locally or potentially dangerous phenomena are expected. (such as local winds, summer thunderstorms, rising streams or high waves) Be aware and pay attention to the latest weather updates, especially if you carry out activities exposed to weather or close to a stream or shoreline. 


Meteo18 Weather Cam more information Meteo18 Weather Cam


Thunder radar more information blitzortung!


Rain radar more information rain snow radar


Visit our other weather sites:

Template documentation
and downloads

And another site



Weather Underground History page Text

Daily Summary for September 5, 2016 Units:  Metric    English   Both
« Previous Day
Next Day »
Daily Weekly Monthly Yearly Custom
  High: Low: Average:
Temperature: -17.8 °C -7.5 °C -6.8 °C
Dew Point: -17.8 °C -9 °C -7.8 °C
Humidity: Humidity % 81 % 89 %
Wind Speed: 0 km/h 0 km/h 0.6 km/h
Wind Gust: 0 km/h - -
Wind:- - SE
Pressure: 0 hPa 34486.4 hPa -
Precipitation: 58.42 mm    
Historical Graphs
 
 
Tabular Data for September 5, 2016
Time Temperature Dew Point Pressure Wind Wind Speed Wind Gust Humidity Rainfall Rate (Hourly)
-17.8 °C -17.8 °C 0 hPa Calm     Humidity % 0 mm
00:02 -6.9 °C -8.7 °C 34496.6 hPa Calm     82 % 0 mm
00:07 -6.9 °C -8.8 °C 34496.6 hPa Calm     81 % 0 mm
00:12 -6.9 °C -8.7 °C 34496.6 hPa Calm     82 % 0 mm
00:17 -7.1 °C -8.8 °C 34496.6 hPa Calm     82 % 0 mm
00:22 -7.1 °C -8.8 °C 34496.6 hPa Calm     82 % 0 mm
00:27 -7.2 °C -8.8 °C 34496.6 hPa Calm     83 % 0 mm
00:32 -7.3 °C -8.9 °C 34496.6 hPa Calm     83 % 0 mm
00:42 -7.2 °C -8.7 °C 34496.6 hPa Calm     84 % 0 mm
00:47 -7.2 °C -8.7 °C 34496.6 hPa Calm     84 % 0 mm
00:52 -7.1 °C -8.6 °C 34496.6 hPa Calm     85 % 0 mm
00:57 -7.1 °C -8.8 °C 34496.6 hPa Calm     83 % 0 mm
01:02 -7.2 °C -8.7 °C 34496.6 hPa Calm     84 % 0 mm
01:07 -7.2 °C -8.8 °C 34496.6 hPa Calm     84 % 0 mm
01:12 -7.3 °C -8.8 °C 34496.6 hPa Calm     84 % 0 mm
01:17 -7.3 °C -8.8 °C 34496.6 hPa Calm     84 % 0 mm
01:22 -7.3 °C -8.7 °C 34496.6 hPa Calm     85 % 0 mm
01:27 -7.3 °C -8.7 °C 34496.6 hPa Calm     85 % 0 mm
01:32 -7.3 °C -8.7 °C 34496.6 hPa Calm     85 % 0 mm
01:37 -7.3 °C -8.8 °C 34496.6 hPa Calm     84 % 0 mm
01:42 -7.3 °C -8.9 °C 34496.6 hPa Calm     84 % 0 mm
01:47 -7.4 °C -9 °C 34496.6 hPa Calm     83 % 0 mm
01:52 -7.4 °C -8.9 °C 34496.6 hPa Calm     84 % 0 mm
01:57 -7.4 °C -8.9 °C 34496.6 hPa Calm     85 % 0 mm
02:02 -7.4 °C -8.6 °C 34496.6 hPa Calm     87 % 0 mm
02:07 -7.2 °C -8.4 °C 34496.6 hPa Calm     87 % 0 mm
02:12 -7.1 °C -8.5 °C 34496.6 hPa Calm     85 % 0 mm
02:17 -6.9 °C -8.4 °C 34496.6 hPa Calm     84 % 0 mm
02:22 -6.8 °C -8.4 °C 34496.6 hPa Calm     84 % 0 mm
02:32 -7 °C -8.7 °C 34496.6 hPa Calm     83 % 0 mm
02:37 -7.1 °C -8.8 °C 34496.6 hPa Calm     83 % 0 mm
02:42 -7.1 °C -8.6 °C 34496.6 hPa Calm     85 % 0 mm
02:47 -7 °C -8.4 °C 34496.6 hPa Calm     85 % 0 mm
02:52 -6.9 °C -8.6 °C 34496.6 hPa Calm     83 % 0 mm
02:57 -6.9 °C -8.6 °C 34486.4 hPa Calm     83 % 0 mm
03:02 -6.9 °C -8.4 °C 34496.6 hPa Calm     84 % 0 mm
03:12 -6.8 °C -8.3 °C 34496.6 hPa Calm     84 % 0 mm
03:17 -6.8 °C -8.3 °C 34496.6 hPa Calm     84 % 0 mm
03:22 -6.7 °C -8.3 °C 34496.6 hPa WNW 2.6 km/h 7.7 km/h 84 % 0 mm
03:27 -6.7 °C -8.2 °C 34496.6 hPa Calm   7.7 km/h 84 % 0 mm
03:32 -6.6 °C -8.2 °C 34496.6 hPa NW 2.6 km/h 7.7 km/h 84 % 0 mm
03:37 -6.6 °C -8.2 °C 34496.6 hPa WNW 2.6 km/h 10.3 km/h 84 % 0 mm
03:42 -6.6 °C -8.2 °C 34496.6 hPa West 2.6 km/h 10.3 km/h 84 % 0 mm
03:47 -6.7 °C -8.2 °C 34496.6 hPa Calm   10.3 km/h 84 % 0 mm
03:52 -6.7 °C -8.3 °C 34510.1 hPa Calm   10.3 km/h 84 % 0 mm
03:57 -6.7 °C -8.3 °C 34496.6 hPa Calm   7.7 km/h 84 % 0 mm
04:02 -6.7 °C -8.2 °C 34496.6 hPa Calm   7.7 km/h 85 % 0 mm
04:12 -6.7 °C -8.2 °C 34496.6 hPa Calm   5.1 km/h 85 % 0 mm
04:17 -6.8 °C -8.2 °C 34496.6 hPa Calm   5.1 km/h 85 % 0 mm
04:22 -6.8 °C -8.3 °C 34496.6 hPa Calm   5.1 km/h 85 % 0 mm
04:27 -6.9 °C -8.4 °C 34496.6 hPa NNE 2.6 km/h 5.1 km/h 84 % 0 mm
04:32 -7 °C -8.4 °C 34496.6 hPa Calm   5.1 km/h 85 % 0 mm
04:37 -7.1 °C -8.6 °C 34510.1 hPa Calm   5.1 km/h 85 % 0 mm
04:42 -7.1 °C -8.4 °C 34496.6 hPa Calm   5.1 km/h 86 % 0 mm
04:47 -7.1 °C -8.4 °C 34510.1 hPa Calm   5.1 km/h 86 % 0 mm
04:52 -7.1 °C -8.4 °C 34510.1 hPa Calm   2.6 km/h 86 % 0 mm
05:02 -7.1 °C -8.4 °C 34510.1 hPa Calm     86 % 0 mm
05:12 -7.2 °C -8.4 °C 34510.1 hPa Calm     87 % 0 mm
05:17 -7.2 °C -8.4 °C 34496.6 hPa Calm   2.6 km/h 87 % 0 mm
05:22 -7.2 °C -8.4 °C 34496.6 hPa Calm   2.6 km/h 87 % 0 mm
05:27 -7.2 °C -8.4 °C 34510.1 hPa Calm   2.6 km/h 87 % 0 mm
05:32 -7.2 °C -8.4 °C 34510.1 hPa Calm   2.6 km/h 87 % 0 mm
05:42 -7.3 °C -8.5 °C 34510.1 hPa Calm     87 % 0 mm
05:47 -7.3 °C -8.5 °C 34510.1 hPa Calm     87 % 0 mm
05:52 -7.3 °C -8.4 °C 34510.1 hPa Calm     88 % 0 mm
05:57 -7.3 °C -8.4 °C 34510.1 hPa Calm     88 % 0 mm
06:02 -7.3 °C -8.4 °C 34510.1 hPa Calm     88 % 0 mm
06:07 -7.3 °C -8.3 °C 34510.1 hPa Calm     89 % 0 mm
06:12 -7.3 °C -8.4 °C 34510.1 hPa Calm     88 % 0 mm
06:17 -7.3 °C -8.4 °C 34520.3 hPa Calm     88 % 0 mm
06:22 -7.3 °C -8.4 °C 34520.3 hPa Calm     88 % 0 mm
06:27 -7.3 °C -8.3 °C 34520.3 hPa Calm     89 % 0 mm
06:32 -7.3 °C -8.3 °C 34520.3 hPa Calm     89 % 0 mm
06:37 -7.3 °C -8.4 °C 34520.3 hPa Calm     89 % 0 mm
06:42 -7.3 °C -8.4 °C 34520.3 hPa Calm     89 % 0 mm
06:47 -7.3 °C -8.4 °C 34520.3 hPa Calm     89 % 0 mm
06:52 -7.4 °C -8.4 °C 34520.3 hPa Calm     89 % 0 mm
06:57 -7.4 °C -8.6 °C 34520.3 hPa Calm     88 % 0 mm
07:02 -7.4 °C -8.6 °C 34533.8 hPa Calm   2.6 km/h 88 % 0 mm
07:12 -7.4 °C -8.6 °C 34533.8 hPa Calm   2.6 km/h 88 % 0 mm
07:17 -7.4 °C -8.5 °C 34533.8 hPa Calm     88 % 0 mm
07:22 -7.4 °C -8.6 °C 34533.8 hPa Calm     88 % 0 mm
07:27 -7.4 °C -8.6 °C 34533.8 hPa South 2.6 km/h   88 % 0 mm
07:32 -7.5 °C -8.6 °C 34533.8 hPa Calm   2.6 km/h 88 % 0 mm
07:37 -7.5 °C -8.6 °C 34533.8 hPa Calm   2.6 km/h 88 % 0 mm
07:42 -7.5 °C -8.6 °C 34533.8 hPa Calm   2.6 km/h 88 % 0 mm
07:47 -7.5 °C -8.6 °C 34533.8 hPa Calm   2.6 km/h 88 % 0 mm
07:52 -7.5 °C -8.6 °C 34533.8 hPa Calm   2.6 km/h 88 % 0 mm
07:57 -7.4 °C -8.6 °C 34533.8 hPa Calm   2.6 km/h 88 % 0 mm
08:02 -7.4 °C -8.6 °C 34544 hPa Calm     88 % 0 mm
08:07 -7.4 °C -8.6 °C 34544 hPa Calm     88 % 0 mm
08:12 -7.4 °C -8.6 °C 34544 hPa Calm     88 % 0 mm
08:22 -7.4 °C -8.5 °C 34544 hPa Calm   2.6 km/h 88 % 0 mm
08:32 -7.4 °C -8.5 °C 34554.1 hPa Calm   2.6 km/h 88 % 0 mm
08:37 -7.4 °C -8.5 °C 34554.1 hPa Calm   2.6 km/h 88 % 0 mm
08:42 -7.3 °C -8.4 °C 34554.1 hPa Calm   2.6 km/h 88 % 0 mm
08:52 -7.3 °C -8.4 °C 34554.1 hPa Calm   2.6 km/h 88 % 0 mm
08:57 -7.2 °C -8.3 °C 34554.1 hPa Calm   2.6 km/h 88 % 0 mm
09:02 -7.2 °C -8.4 °C 34554.1 hPa Calm   2.6 km/h 87 % 0 mm
09:12 -7.1 °C -8.3 °C 34554.1 hPa Calm   2.6 km/h 87 % 0 mm
09:17 -7 °C -8.2 °C 34554.1 hPa Calm   2.6 km/h 87 % 0 mm
09:22 -7 °C -8.2 °C 34554.1 hPa Calm   2.6 km/h 87 % 0 mm
09:27 -6.9 °C -8.1 °C 34567.7 hPa ESE 2.6 km/h 2.6 km/h 87 % 0 mm
09:32 -6.8 °C -8.2 °C 34567.7 hPa Calm   2.6 km/h 86 % 0 mm
09:37 -6.8 °C -8.1 °C 34567.7 hPa Calm   5.1 km/h 86 % 0 mm
09:42 -6.7 °C -8.1 °C 34567.7 hPa Calm   5.1 km/h 86 % 0 mm
09:47 -6.7 °C -8.1 °C 34567.7 hPa Calm   5.1 km/h 86 % 0 mm
09:52 -6.7 °C -8.1 °C 34567.7 hPa Calm   2.6 km/h 86 % 0 mm
09:57 -6.7 °C -8 °C 34567.7 hPa Calm   2.6 km/h 86 % 0 mm
10:02 -6.7 °C -8 °C 34567.7 hPa Calm   5.1 km/h 86 % 0 mm
10:07 -6.6 °C -7.8 °C 34567.7 hPa Calm   5.1 km/h 87 % 0 mm
10:12 -6.6 °C -7.8 °C 34567.7 hPa Calm   5.1 km/h 87 % 0 mm
10:17 -6.6 °C -7.8 °C 34554.1 hPa SE 5.1 km/h 5.1 km/h 87 % 0 mm
10:22 -6.7 °C -7.9 °C 34554.1 hPa SSW 5.1 km/h 5.1 km/h 87 % 0 mm
10:27 -6.8 °C -8.1 °C 34567.7 hPa Calm   10.3 km/h 86 % 0 mm
10:32 -6.8 °C -8.1 °C 34567.7 hPa Calm   10.3 km/h 86 % 0 mm
10:37 -6.8 °C -8.3 °C 34567.7 hPa Calm   10.3 km/h 85 % 0 mm
10:42 -6.8 °C -8.2 °C 34567.7 hPa ESE 5.1 km/h 7.7 km/h 86 % 0 mm
10:47 -6.9 °C -8.2 °C 34577.8 hPa Calm   10.3 km/h 86 % 0 mm
10:52 -6.8 °C -8.2 °C 34577.8 hPa Calm   10.3 km/h 86 % 0 mm
10:57 -6.8 °C -8.2 °C 34577.8 hPa Calm   10.3 km/h 86 % 0 mm
11:02 -6.8 °C -8 °C 34577.8 hPa East 2.6 km/h 5.1 km/h 87 % 0 mm
11:07 -6.8 °C -7.9 °C 34591.4 hPa Calm   5.1 km/h 88 % 0 mm
11:12 -6.9 °C -8.1 °C 34591.4 hPa Calm   5.1 km/h 88 % 7.62 mm
11:17 -7.1 °C -8.1 °C 34591.4 hPa Calm   5.1 km/h 89 % 12.7 mm
11:22 -7.1 °C -8.1 °C 34591.4 hPa Calm   5.1 km/h 90 % 12.7 mm
11:27 -7.2 °C -8.1 °C 34591.4 hPa East 2.6 km/h 5.1 km/h 90 % 12.7 mm
11:32 -7.2 °C -8.1 °C 34591.4 hPa East 2.6 km/h 5.1 km/h 90 % 12.7 mm
11:37 -7.2 °C -8 °C 34591.4 hPa ENE 2.6 km/h 5.1 km/h 91 % 12.7 mm
11:42 -7.2 °C -8 °C 34591.4 hPa ENE 2.6 km/h 5.1 km/h 91 % 12.7 mm
11:47 -7.1 °C -7.9 °C 34591.4 hPa Calm   7.7 km/h 91 % 12.7 mm
11:52 -7.1 °C -8.1 °C 34591.4 hPa Calm   7.7 km/h 90 % 12.7 mm
12:02 -7.1 °C -8.1 °C 34591.4 hPa NE 5.1 km/h 7.7 km/h 90 % 20.32 mm
12:07 -7.1 °C -7.9 °C 34591.4 hPa ENE 2.6 km/h 7.7 km/h 91 % 12.7 mm
12:12 -7.1 °C -7.9 °C 34591.4 hPa Calm   12.9 km/h 91 % 12.7 mm
12:17 -7.1 °C -7.8 °C 34601.5 hPa Calm   12.9 km/h 92 % 7.62 mm
12:22 -7 °C -7.7 °C 34601.5 hPa NE 2.6 km/h 12.9 km/h 92 % 7.62 mm
12:32 -7.1 °C -7.8 °C 34591.4 hPa ENE 5.1 km/h 12.9 km/h 92 % 7.62 mm
12:42 -7 °C -7.7 °C 34601.5 hPa ENE 5.1 km/h 12.9 km/h 93 % 7.62 mm
12:47 -7 °C -7.7 °C 34601.5 hPa ENE 5.1 km/h 12.9 km/h 92 % 7.62 mm
12:52 -7 °C -7.7 °C 34601.5 hPa NE 2.6 km/h 12.9 km/h 92 % 7.62 mm
12:57 -6.9 °C -7.6 °C 34601.5 hPa NNW 7.7 km/h 15.6 km/h 92 % 0 mm
13:02 -6.8 °C -7.5 °C 34601.5 hPa NE 2.6 km/h 15.6 km/h 92 % 0 mm
13:12 -6.6 °C -7.3 °C 34601.5 hPa North 2.6 km/h 10.3 km/h 92 % 0 mm
13:17 -6.6 °C -7.4 °C 34601.5 hPa NE 5.1 km/h 7.7 km/h 91 % 0 mm
13:22 -6.6 °C -7.4 °C 34601.5 hPa NE 2.6 km/h 10.3 km/h 91 % 0 mm
13:27 -6.7 °C -7.6 °C 34601.5 hPa NNE 2.6 km/h 10.3 km/h 91 % 7.62 mm
13:32 -6.7 °C -7.4 °C 34601.5 hPa NNE 5.1 km/h 10.3 km/h 92 % 7.62 mm
13:37 -6.7 °C -7.4 °C 34601.5 hPa Calm   7.7 km/h 92 % 7.62 mm
13:42 -6.7 °C -7.4 °C 34601.5 hPa NNE 5.1 km/h 5.1 km/h 92 % 7.62 mm
13:47 -6.7 °C -7.6 °C 34601.5 hPa NE 2.6 km/h 7.7 km/h 91 % 7.62 mm
13:52 -6.7 °C -7.6 °C 34601.5 hPa Calm   10.3 km/h 91 % 7.62 mm
13:57 -6.6 °C -7.3 °C 34601.5 hPa Calm   10.3 km/h 92 % 7.62 mm
14:02 -6.6 °C -7.4 °C 34601.5 hPa North 2.6 km/h 7.7 km/h 91 % 7.62 mm
14:07 -6.6 °C -7.4 °C 34601.5 hPa NE 5.1 km/h 7.7 km/h 91 % 7.62 mm
14:12 -6.5 °C -7.3 °C 34601.5 hPa Calm   5.1 km/h 91 % 7.62 mm
14:17 -6.4 °C -7.2 °C 34601.5 hPa Calm   5.1 km/h 92 % 7.62 mm
14:22 -6.4 °C -7.3 °C 34601.5 hPa NE 2.6 km/h 5.1 km/h 90 % 0 mm
14:27 -6.3 °C -7.2 °C 34601.5 hPa Calm   2.6 km/h 91 % 0 mm
14:32 -6.3 °C -7.2 °C 34601.5 hPa North 2.6 km/h 2.6 km/h 90 % 0 mm
14:37 -6.2 °C -7.2 °C 34601.5 hPa Calm   7.7 km/h 90 % 0 mm
14:42 -6.2 °C -7.2 °C 34601.5 hPa Calm   7.7 km/h 89 % 0 mm
14:47 -6.2 °C -7.2 °C 34601.5 hPa Calm   7.7 km/h 89 % 0 mm
14:52 -6.1 °C -7.1 °C 34601.5 hPa Calm   5.1 km/h 89 % 0 mm
14:57 -6.1 °C -7.2 °C 34601.5 hPa Calm   5.1 km/h 88 % 0 mm
15:02 -6 °C -7.2 °C 34601.5 hPa Calm   5.1 km/h 88 % 0 mm
15:07 -6 °C -7.2 °C 34611.7 hPa Calm   5.1 km/h 88 % 0 mm
15:12 -6.1 °C -7.3 °C 34611.7 hPa WNW 2.6 km/h 5.1 km/h 88 % 0 mm
15:17 -6.2 °C -7.3 °C 34611.7 hPa WNW 2.6 km/h 5.1 km/h 89 % 12.7 mm
15:22 -6.3 °C -7.1 °C 34601.5 hPa NW 2.6 km/h 7.7 km/h 91 % 12.7 mm
15:27 -6.3 °C -7.2 °C 34611.7 hPa Calm   10.3 km/h 91 % 12.7 mm
15:32 -6.2 °C -6.9 °C 34611.7 hPa Calm   10.3 km/h 92 % 12.7 mm
15:37 -6.2 °C -7.1 °C 34601.5 hPa Calm   10.3 km/h 91 % 12.7 mm
15:42 -6.2 °C -7.1 °C 34601.5 hPa NW 7.7 km/h 7.7 km/h 91 % 12.7 mm
15:47 -6.2 °C -7.1 °C 34601.5 hPa NNE 5.1 km/h 7.7 km/h 91 % 12.7 mm
15:52 -6.2 °C -7 °C 34601.5 hPa Calm   7.7 km/h 91 % 12.7 mm
15:57 -6.1 °C -6.9 °C 34601.5 hPa NNE 2.6 km/h 7.7 km/h 91 % 12.7 mm
16:02 -6.1 °C -7.1 °C 34601.5 hPa Calm   7.7 km/h 89 % 12.7 mm
16:07 -6 °C -7.1 °C 34601.5 hPa Calm   7.7 km/h 89 % 12.7 mm
16:12 -5.9 °C -7.1 °C 34601.5 hPa ENE 2.6 km/h 7.7 km/h 88 % 12.7 mm
16:17 -6 °C -7.3 °C 34601.5 hPa Calm   7.7 km/h 87 % 0 mm
16:22 -5.9 °C -7.1 °C 34601.5 hPa Calm   7.7 km/h 88 % 0 mm
16:27 -5.8 °C -7.1 °C 34601.5 hPa Calm   7.7 km/h 86 % 0 mm
16:32 -5.8 °C -7.1 °C 34601.5 hPa Calm   2.6 km/h 86 % 0 mm
16:37 -5.7 °C -7.1 °C 34601.5 hPa Calm   2.6 km/h 86 % 0 mm
16:42 -5.7 °C -7.1 °C 34601.5 hPa Calm   2.6 km/h 86 % 0 mm
16:47 -5.8 °C -7.1 °C 34601.5 hPa Calm   2.6 km/h 86 % 0 mm
16:52 -5.8 °C -7.1 °C 34601.5 hPa Calm   2.6 km/h 87 % 0 mm
16:57 -5.8 °C -7.1 °C 34601.5 hPa SW 5.1 km/h 5.1 km/h 87 % 0 mm
17:02 -5.8 °C -6.9 °C 34601.5 hPa Calm   5.1 km/h 88 % 0 mm
17:07 -5.8 °C -7.1 °C 34601.5 hPa Calm   5.1 km/h 87 % 0 mm
17:12 -5.8 °C -7.1 °C 34601.5 hPa SW 5.1 km/h 5.1 km/h 87 % 0 mm
17:17 -5.9 °C -7.1 °C 34601.5 hPa Calm   5.1 km/h 88 % 0 mm
17:22 -5.9 °C -7.2 °C 34601.5 hPa Calm   5.1 km/h 87 % 0 mm
17:27 -5.8 °C -7 °C 34601.5 hPa Calm   5.1 km/h 88 % 0 mm
17:32 -5.8 °C -7.1 °C 34601.5 hPa SW 2.6 km/h 5.1 km/h 87 % 0 mm
17:37 -5.8 °C -7 °C 34601.5 hPa SW 2.6 km/h 5.1 km/h 88 % 0 mm
17:42 -5.9 °C -7.1 °C 34601.5 hPa SW 5.1 km/h 5.1 km/h 88 % 0 mm
17:47 -5.9 °C -7.1 °C 34601.5 hPa SSW 7.7 km/h 7.7 km/h 88 % 0 mm
17:52 -6 °C -7.1 °C 34601.5 hPa Calm   15.6 km/h 89 % 0 mm
17:57 -6.1 °C -7 °C 34601.5 hPa Calm   15.6 km/h 90 % 0 mm
18:02 -6.1 °C -7 °C 34601.5 hPa Calm   15.6 km/h 90 % 0 mm
18:07 -6.1 °C -6.9 °C 34601.5 hPa Calm   7.7 km/h 91 % 0 mm
18:12 -6.1 °C -6.9 °C 34601.5 hPa Calm   2.6 km/h 91 % 0 mm
18:17 -6.2 °C -7 °C 34601.5 hPa Calm   2.6 km/h 91 % 0 mm
18:22 -6.2 °C -7 °C 34601.5 hPa Calm   5.1 km/h 91 % 7.62 mm
18:32 -6.3 °C -7 °C 34601.5 hPa Calm   7.7 km/h 93 % 12.7 mm
18:42 -6.3 °C -7 °C 34601.5 hPa Calm   5.1 km/h 93 % 12.7 mm
18:47 -6.3 °C -7 °C 34601.5 hPa Calm     93 % 12.7 mm
18:52 -6.3 °C -7 °C 34601.5 hPa Calm   2.6 km/h 93 % 12.7 mm
19:02 -6.3 °C -7 °C 34601.5 hPa Calm   2.6 km/h 93 % 12.7 mm
19:07 -6.3 °C -7 °C 34601.5 hPa Calm     93 % 12.7 mm
19:12 -6.3 °C -7 °C 34601.5 hPa Calm     93 % 12.7 mm
19:17 -6.3 °C -6.8 °C 34601.5 hPa Calm     94 % 12.7 mm
19:27 -6.2 °C -6.8 °C 34601.5 hPa Calm     94 % 7.62 mm
19:32 -6.2 °C -6.9 °C 34611.7 hPa Calm     93 % 7.62 mm
19:37 -6.2 °C -6.9 °C 34611.7 hPa Calm     93 % 7.62 mm
19:42 -6.2 °C -6.9 °C 34611.7 hPa Calm     93 % 0 mm
19:47 -6.2 °C -6.8 °C 34611.7 hPa Calm     93 % 0 mm
19:52 -6.2 °C -6.9 °C 34611.7 hPa Calm     93 % 0 mm
19:57 -6.2 °C -6.9 °C 34611.7 hPa Calm     93 % 0 mm
20:07 -6.2 °C -6.9 °C 34611.7 hPa Calm     93 % 0 mm
20:12 -6.2 °C -6.8 °C 34611.7 hPa Calm     94 % 0 mm
20:17 -6.3 °C -6.8 °C 34611.7 hPa Calm     94 % 0 mm
20:22 -6.3 °C -6.8 °C 34611.7 hPa Calm     94 % 0 mm
20:32 -6.3 °C -6.8 °C 34611.7 hPa Calm     94 % 0 mm
20:37 -6.3 °C -6.9 °C 34611.7 hPa Calm     94 % 0 mm
20:42 -6.3 °C -6.9 °C 34625.2 hPa Calm     94 % 0 mm
20:47 -6.3 °C -6.9 °C 34625.2 hPa Calm     94 % 0 mm
20:52 -6.3 °C -6.8 °C 34625.2 hPa Calm     95 % 0 mm
20:57 -6.4 °C -6.8 °C 34625.2 hPa Calm     95 % 0 mm
21:02 -6.4 °C -6.8 °C 34635.4 hPa Calm     95 % 0 mm
21:12 -6.4 °C -6.9 °C 34635.4 hPa Calm     95 % 0 mm
21:17 -6.5 °C -7.1 °C 34635.4 hPa Calm     94 % 0 mm
21:22 -6.6 °C -7.1 °C 34635.4 hPa Calm     94 % 0 mm
21:27 -6.6 °C -7.1 °C 34635.4 hPa Calm     94 % 0 mm
21:37 -6.6 °C -7.1 °C 34635.4 hPa Calm     94 % 0 mm
21:47 -6.6 °C -7.1 °C 34635.4 hPa Calm     94 % 0 mm
21:52 -6.6 °C -7.1 °C 34635.4 hPa Calm     94 % 0 mm
21:57 -6.6 °C -7.2 °C 34635.4 hPa Calm     94 % 0 mm
22:02 -6.6 °C -7.2 °C 34635.4 hPa Calm     94 % 0 mm
22:12 -6.6 °C -7.2 °C 34635.4 hPa Calm     94 % 0 mm
22:17 -6.6 °C -7.2 °C 34635.4 hPa Calm     94 % 0 mm
22:22 -6.6 °C -7.2 °C 34635.4 hPa Calm     94 % 0 mm
22:27 -6.6 °C -7.2 °C 34635.4 hPa Calm     94 % 0 mm
22:32 -6.6 °C -7.2 °C 34635.4 hPa Calm     94 % 0 mm
22:42 -6.6 °C -7.2 °C 34635.4 hPa Calm     94 % 0 mm
22:47 -6.6 °C -7.2 °C 34635.4 hPa Calm     94 % 0 mm
22:52 -6.6 °C -7.2 °C 34635.4 hPa Calm     94 % 0 mm
23:02 -6.7 °C -7.2 °C 34635.4 hPa Calm     95 % 0 mm
23:07 -6.7 °C -7.2 °C 34635.4 hPa Calm     95 % 0 mm
23:12 -6.7 °C -7.2 °C 34635.4 hPa Calm     95 % 0 mm
23:17 -6.7 °C -7.2 °C 34635.4 hPa Calm     95 % 0 mm
23:22 -6.7 °C -7.2 °C 34635.4 hPa Calm     95 % 0 mm
23:27 -6.8 °C -7.2 °C 34645.6 hPa Calm     95 % 0 mm
23:37 -6.8 °C -7.2 °C 34645.6 hPa Calm     95 % 0 mm
23:42 -6.8 °C -7.3 °C 34645.6 hPa Calm     95 % 0 mm
23:47 -6.8 °C -7.2 °C 34645.6 hPa Calm     96 % 0 mm
23:52 -6.9 °C -7.3 °C 34645.6 hPa Calm     95 % 0 mm
23:57 -6.9 °C -7.3 °C 34645.6 hPa Calm     96 % 0 mm
Meteo18
Compliments of Weather Underground - 4 mb

Script developed by  Jim McMurry - jmcmurry@mwt.net Adapted for the template by  Wim van der Kuil - Leuven-Template.eu

You find our weather info also at:

European Weather Network

Weather Underground

Equipment we use:

Weather-station
Davis Vue

Weather-program
Meteobridge

Weather-server
Raspberry PI 2 B+

Provider
1 and 1

Davis Vue

Meteobridge

Raspberry PI 2 B+

1 and 1